OSCAR 7 (AO-7) 1 07530U 74089B 26144.92196859 -.00000035 00000+0 68442-4 0 9995 2 07530 101.9908 157.9257 0012312 173.7706 248.3092 12.53697613357603 PHASE 3B (AO-10) 1 14129U 83058B 26140.20547571 -.00000279 00000+0 00000+0 0 9992 2 14129 25.8960 224.2131 6020564 107.9633 323.3103 2.05872908294917 UOSAT 2 (UO-11) 1 14781U 84021B 26144.86305443 .00001020 00000+0 10958-3 0 9994 2 14781 97.8043 110.7018 0006077 259.9463 100.1069 14.90717918253655 LUSAT (LO-19) 1 20442U 90005G 26144.94892971 .00000096 00000+0 50950-4 0 9999 2 20442 98.8861 166.1131 0010427 274.9515 85.0478 14.34114882899060 EYESAT A (AO-27) 1 22825U 93061C 26144.92493554 .00000073 00000+0 44690-4 0 9992 2 22825 98.6887 212.3457 0008767 161.4958 198.6545 14.30934944703675 ITAMSAT (IO-26) 1 22826U 93061D 26144.91127946 .00000061 00000+0 39903-4 0 9999 2 22826 98.6833 212.2471 0009605 146.1358 214.0440 14.31361037703987 RADIO ROSTO (RS15) 1 23439U 94085A 26144.87944216 -.00000037 00000+0 15560-3 0 9995 2 23439 64.8188 340.9127 0155279 8.1680 352.1720 11.27583637293272 JAS-2 (FO-29) 1 24278U 96046B 26144.87346886 -.00000009 00000+0 25168-4 0 9990 2 24278 98.5264 356.9366 0350278 156.7968 204.9430 13.53273118470012 TECHSAT 1B (GO-32) 1 25397U 98043D 26144.95440619 .00000048 00000+0 40816-4 0 9999 2 25397 99.0063 137.1282 0000371 333.0816 27.0342 14.24423132448026 ISS (ZARYA) 1 25544U 98067A 26144.84170369 .00008909 00000+0 16754-3 0 9996 2 25544 51.6327 55.6720 0007493 94.5162 265.6683 15.49354393568136 PCSAT (NO-44) 1 26931U 01043C 26144.83088080 .00000100 00000+0 68219-4 0 9991 2 26931 67.0508 304.6811 0006183 263.7478 96.2920 14.31945740287101 SAUDISAT 1C (SO-50) 1 27607U 02058C 26144.89072406 .00000697 00000+0 99924-4 0 9998 2 27607 64.5515 201.0614 0075587 266.7425 92.5032 14.82989716261003 CUTE-1 (CO-55) 1 27844U 03031E 26144.92545764 .00000231 00000+0 11908-3 0 9998 2 27844 98.6739 153.7771 0008350 250.5885 109.4391 14.24319150188362 CUBESAT XI-IV (CO-57) 1 27848U 03031J 26144.76169835 .00000189 00000+0 10196-3 0 9995 2 27848 98.6769 153.3467 0008199 272.5917 87.4323 14.23606308188046 MOZHAETS 4 (RS22) 1 27939U 03042A 26144.93836438 .00000864 00000+0 14152-3 0 9993 2 27939 98.3475 328.6416 0011050 349.5121 172.1581 14.73419577212121 CUBESAT XI-V 1 28895U 05043F 26144.89263026 .00001083 00000+0 17848-3 0 9999 2 28895 98.2962 300.0298 0012780 280.0946 79.8819 14.72558181 98325 CUTE-1.7+APD II (CO-65) 1 32785U 08021C 26144.91258561 .00004248 00000+0 27121-3 0 9993 2 32785 97.8262 125.8536 0010650 105.4362 254.8043 15.09189590981689 SEEDS II (CO-66) 1 32791U 08021J 26144.95325826 .00016756 00000+0 54710-3 0 9994 2 32791 97.7523 141.7583 0004266 60.0915 300.0749 15.31833759983733 YUBILEINY (RS30) 1 32953U 08025A 26144.92078411 -.00000088 00000+0 -70722-3 0 9994 2 32953 82.5059 9.9140 0019854 5.2043 354.9240 12.43177887816805 KKS-1 (KISEKI) 1 33499U 09002H 26144.84532703 .00001111 00000+0 14334-3 0 9999 2 33499 98.1194 66.9184 0008278 16.4948 343.6533 14.83052133932734 SWISSCUBE 1 35932U 09051B 26144.97478233 .00000807 00000+0 16923-3 0 9995 2 35932 98.4052 52.4579 0005528 291.2528 68.8082 14.62428614885767 BEESAT-1 1 35933U 09051C 26144.69837987 .00000636 00000+0 13772-3 0 9999 2 35933 98.3981 51.8610 0004265 312.1106 47.9732 14.61674986885752 ITUPSAT1 1 35935U 09051E 26144.25764539 .00000579 00000+0 12977-3 0 9997 2 35935 98.4065 50.6306 0006654 322.4527 37.6208 14.60398238885242 XIWANG-1 (HOPE-1) 1 36122U 09072B 26144.91215229 .00000438 00000+0 12631-2 0 9999 2 36122 100.4015 99.1179 0006883 289.7311 70.3060 13.16440545789945 O/OREOS (USA 219) 1 37224U 10062C 26144.35405487 .00001583 00000+0 15561-3 0 9997 2 37224 71.9680 134.3200 0012549 115.3776 244.8696 14.93623741113087 JUGNU 1 37839U 11058B 26144.01891543 .00000395 00000+0 66477-4 0 9993 2 37839 19.9603 95.2508 0018658 169.0267 262.0309 14.13768696755604 SRMSAT 1 37841U 11058D 26144.84078811 .00000363 00000+0 53319-4 0 9998 2 37841 19.9704 200.7839 0011645 308.1180 207.5689 14.11569958754510 STRAND-1 1 39090U 13009E 26144.45411133 .00000206 00000+0 83831-4 0 9997 2 39090 98.3917 325.2736 0007587 307.1154 52.9339 14.37146928693651 ZACUBE-1 (TSHEPISOSAT) 1 39417U 13066B 26144.87663728 .00003769 00000+0 29530-3 0 9990 2 39417 97.8107 107.0868 0040432 330.4318 29.4619 15.00984990677234 GOMX-1 1 39430U 13066Q 26144.82895919 .00001743 00000+0 26703-3 0 9998 2 39430 97.6503 346.7654 0129408 151.9291 208.8974 14.69351511666482 CUBEBUG-2 (LO-74) 1 39440U 13066AA 26144.81738210 .00003331 00000+0 31087-3 0 9994 2 39440 97.8896 93.7028 0059583 104.3887 256.3956 14.93548951673505 FUNCUBE-1 (AO-73) 1 39444U 13066AE 26144.91922046 .00006550 00000+0 41119-3 0 9994 2 39444 97.8266 115.8865 0034517 283.8693 75.8695 15.09149207676150 UWE-3 1 39446U 13066AG 26144.81999303 .00004477 00000+0 38651-3 0 9998 2 39446 97.8685 100.7423 0050306 39.4444 321.0423 14.96792599674081 UNISAT-6 1 40012U 14033C 26144.39829007 .00002378 00000+0 25958-3 0 9994 2 40012 97.7853 297.5359 0046073 145.6012 214.8202 14.88083889642623 DUCHIFAT-1 1 40021U 14033M 26144.89854655 .00080236 00000+0 99230-3 0 9999 2 40021 98.0495 200.8758 0006075 158.2924 201.8589 15.59827945652116 QB50P1 1 40025U 14033R 26144.94814720 .00007321 00000+0 36516-3 0 9990 2 40025 98.0976 154.4718 0007249 313.3224 46.7403 15.17843028649509 LILACSAT-2 1 40908U 15049K 26144.91770715 .00016192 00000+0 28448-3 0 9991 2 40908 97.4677 180.8863 0006240 355.1544 4.9646 15.50571595592149 FOX-1A (AO-85) 1 40967U 15058D 26144.94246933 .00002906 00000+0 26625-3 0 9992 2 40967 64.7766 351.2143 0129422 65.7254 295.7313 14.90816319110107 CAS-2T & KS-1Q 1 41847U 16066G 26144.82950012 .00001072 00000+0 15966-3 0 9996 2 41847 98.3825 220.8312 0341690 200.2494 158.4869 14.44610790501422 RADFXSAT (FOX-1B) 1 43017U 17073E 26144.59005914 .00009149 00000+0 40031-3 0 9996 2 43017 97.4740 12.2926 0153157 50.5563 310.9106 15.12225482461829 DIWATA-2B 1 43678U 18084H 26144.96160631 .00002558 00000+0 20897-3 0 9996 2 43678 98.1135 340.1694 0011610 249.8115 110.1859 15.00324757412739 ES'HAIL 2 1 43700U 18090A 26144.94716391 .00000141 00000+0 00000+0 0 9993 2 43700 0.0293 96.2650 0001610 357.6092 155.4358 1.00272974 27448 FOX-1CLIFF (AO-95) 1 43770U 18099N 26144.67488022 .00009566 00000+0 37285-3 0 9995 2 43770 97.4401 205.0163 0010222 76.4923 283.7453 15.26119658409631 ITASAT 1 43786U 18099AE 26144.89802964 .00006579 00000+0 31944-3 0 9998 2 43786 97.4046 196.8782 0014223 77.2510 283.0313 15.18705524409376 JY1SAT (JO-97) 1 43803U 18099AX 26144.66627960 .00014095 00000+0 44707-3 0 9997 2 43803 97.4145 207.4318 0005118 11.9810 348.1553 15.32790487410022 UWE-4 1 43880U 18111E 26144.77470707 .00028353 00000+0 61165-3 0 9993 2 43880 97.5851 72.1148 0009925 60.2248 299.9986 15.44477012407165 TIANYAN 01 1 44881U 19093C 26144.95618214 .00000879 00000+0 10531-3 0 9996 2 44881 97.7529 217.7544 0014042 157.6319 202.5512 14.86473553347961 RS-44 & BREEZE-KM R/B 1 44909U 19096E 26144.94159380 .00000015 00000+0 17650-4 0 9995 2 44909 82.5226 355.1549 0217117 198.4735 160.8395 12.79748334299371 SALSAT 1 46495U 20068K 26144.92231526 .00007031 00000+0 24913-3 0 9993 2 46495 97.8855 146.5779 0010602 34.0368 326.1549 15.29403972311809 XW-3 (CAS-9) 1 50466U 21131B 26144.93782809 .00000322 00000+0 11325-3 0 9993 2 50466 98.4962 237.4549 0004589 153.1131 207.0297 14.41331106231766 GREENCUBE (IO-117) 1 53109U 22080E 26143.90501805 -.00000003 00000+0 00000+0 0 9996 2 53109 70.1430 306.6926 0008873 295.4075 64.5666 6.42583311 90505 UMKA 1 (RS40S) 1 57172U 23091G 26144.93144421 .00005097 00000+0 23598-3 0 9992 2 57172 97.5065 203.7215 0012564 193.4753 166.6149 15.20503817160479 CUBESX-HSE 3 (RS42S) 1 57178U 23091N 26144.90447775 .00012086 00000+0 41110-3 0 9999 2 57178 97.5104 210.2079 0011510 167.4462 192.7067 15.30529098160860 MONITOR-3 (RS58S) 1 57180U 23091Q 26144.94409197 .00009438 00000+0 35500-3 0 9995 2 57180 97.5096 208.2274 0012186 174.2902 185.8479 15.27293729160744 MONITOR-4 (RS57S) 1 57182U 23091S 26144.92457412 .00009796 00000+0 36722-3 0 9992 2 57182 97.5090 208.1775 0012164 174.6598 185.4773 15.27392233160749 MONITOR-2 (RS39S) 1 57184U 23091U 26144.92394585 .00004355 00000+0 21322-3 0 9991 2 57184 97.5087 203.3597 0011172 185.3617 174.7500 15.18655355160426 SVYATOBOR 1 (RS60S) 1 57187U 23091X 26144.91816134 .00008454 00000+0 32968-3 0 9994 2 57187 97.5102 208.6127 0010097 165.5420 194.6109 15.26149691160764 VIZARD-METEO (RS38S) 1 57189U 23091Z 26144.94987099 .00015456 00000+0 45430-3 0 9996 2 57189 97.5103 213.9827 0008587 146.7308 213.4476 15.35167705161124 POLYTECH-UNIVERSE 3 (R*) 1 57191U 23091AB 26144.88831351 .00004322 00000+0 21018-3 0 9997 2 57191 97.5062 202.8292 0014972 204.7325 155.3193 15.18853322160412 UTMN 2 (RS27S) 1 57203U 23091AP 26144.93494425 .00012524 00000+0 41500-3 0 9995 2 57203 97.5099 211.8438 0009123 153.3855 206.7856 15.31388351160986 KUZGTU 1 (RS47S) 1 57217U 23091AV 26144.94084845 .00011366 00000+0 40240-3 0 9995 2 57217 97.5076 209.1932 0011593 170.8964 189.2489 15.29238202160820 SONATE-2 1 59112U 24043Q 26144.94945430 .00034940 00000+0 48695-3 0 9990 2 59112 97.5511 293.9566 0005827 280.2320 79.8278 15.56834784124275 MESAT1 1 60209U 24125G 26144.33668246 .00044541 00000+0 54062-3 0 9993 2 60209 97.2332 1.3188 0008169 306.7951 53.2556 15.60447153105841 OOV-CUBE (TUBSAT-30) 1 60240U 24128F 26144.76589612 .00002289 00000+0 18262-3 0 9992 2 60240 61.9954 307.2346 0047617 128.6809 231.8556 15.02635458102598 COLIBRI-S (RS67S) 1 61746U 24199M 26144.90811727 .00019812 00000+0 39841-3 0 9999 2 61746 97.3032 18.5644 0008712 18.7673 341.3896 15.46620219133814 HORS 3 (RS81S) 1 61753U 24199U 26144.90992361 .00030584 00000+0 48734-3 0 9991 2 61753 97.3013 20.3134 0006899 28.8112 331.3522 15.53176948133942 HORS 4 (RS82S) 1 61754U 24199V 26144.93648684 .00043439 00000+0 59393-3 0 9997 2 61754 97.2965 21.4011 0005700 25.9723 334.1817 15.57305347134029 ARCTICSAT 1 (RS74S) 1 61762U 24199AD 26144.94284456 .00317572 39250-4 10499-2 0 9999 2 61762 97.2870 27.2879 0002218 152.1729 207.9663 15.90383308134407 SIT-2086 1 61764U 24199AF 26144.92435480 .00031427 00000+0 53553-3 0 9991 2 61764 97.2983 20.8836 0006606 7.2018 352.9328 15.51295626130825 HYPERVIEW 1G (RS66S) 1 61772U 24199AP 26144.90388249 .00100509 00000+0 83532-3 0 9996 2 61772 97.2930 23.5476 0004865 26.3383 333.8125 15.69836522131018 ALTAIR (RS65S) 1 61779U 24199AW 26144.93171966 .00009301 00000+0 26224-3 0 9995 2 61779 97.3064 14.4405 0013828 37.1990 323.0210 15.36539977133542 ASRTU-1 (AO-123) 1 61781U 24199AY 26144.90007288 .00007073 00000+0 20808-3 0 9996 2 61781 97.3036 13.7833 0014988 38.9080 321.3239 15.35283275130352 SAMSAT-IONOSPHERE (RS7*) 1 61784U 24199BB 26144.91600661 .00040136 00000+0 58890-3 0 9993 2 61784 97.2987 20.2893 0008850 23.0126 337.1523 15.55379291133940 RTU MIREA 1 (RS51S) 1 61785U 24199BC 26144.92412118 .00049103 00000+0 64510-3 0 9992 2 61785 97.2978 21.0183 0008405 20.5145 339.6447 15.58327213130849 TEVEL2-4 1 63213U 25052D 26144.96245657 .00016310 00000+0 50285-3 0 9993 2 63213 97.3932 41.3275 0003125 147.1092 213.0346 15.33670944 66550 TEVEL2-5 1 63214U 25052E 26144.65418350 .00015891 00000+0 49264-3 0 9990 2 63214 97.3929 40.9735 0003038 147.5060 212.6370 15.33501284 66502 TEVEL2-6 1 63215U 25052F 26144.66594555 .00015826 00000+0 49123-3 0 9996 2 63215 97.3933 40.9700 0003125 147.0016 213.1422 15.33463281 66501 TEVEL2-1 1 63217U 25052H 26144.68706366 .00014681 00000+0 46313-3 0 9991 2 63217 97.3905 40.6426 0002647 157.9284 202.2073 15.32964740 66493 TEVEL2-3 1 63218U 25052J 26144.68251080 .00014797 00000+0 46601-3 0 9998 2 63218 97.3907 40.6572 0002661 159.2088 200.9263 15.33014756 66491 TEVEL2-2 1 63219U 25052K 26144.68749553 .00014418 00000+0 45480-3 0 9990 2 63219 97.3903 40.6449 0002628 158.7421 201.3931 15.32970600 66494 TEVEL2-9 1 63237U 25052AD 26144.70045445 .00013556 00000+0 45374-3 0 9996 2 63237 97.3967 40.0827 0004918 206.7119 153.3869 15.31069568 66431 TEVEL2-7 1 63238U 25052AE 26144.67164392 .00013486 00000+0 45525-3 0 9996 2 63238 97.3969 39.9796 0005009 207.8316 152.2658 15.30794528 66422 TEVEL2-8 1 63239U 25052AF 26144.67964135 .00013189 00000+0 44553-3 0 9990 2 63239 97.3968 39.9652 0004985 208.6250 151.4718 15.30776906 66429 INNOSAT 16 (RS92S7) 1 64878U 25155C 26144.91011720 .00005389 00000+0 21761-3 0 9993 2 64878 97.4548 112.1193 0008481 267.7566 92.2700 15.25166430 77120 GEOSCAN 6 (RS92S6) 1 64879U 25155D 26144.89729516 .00009289 00000+0 32584-3 0 9998 2 64879 97.4541 113.3698 0005615 255.9508 104.1108 15.29644598 77202 GEOSCAN 1 (RS92S1) 1 64880U 25155E 26144.90851018 .00010232 00000+0 35257-3 0 9995 2 64880 97.4538 113.5095 0005511 255.7942 104.2686 15.30198951 77210 239ALFEROV (RS61S) 1 64881U 25155F 26144.91022153 .00013405 00000+0 43298-3 0 9996 2 64881 97.4540 113.9972 0004910 252.6508 107.4197 15.32223695 77249 GEOSCAN 2 (RS92S2) 1 64890U 25155Q 26144.90633529 .00009961 00000+0 34046-3 0 9993 2 64890 97.4537 113.6505 0005091 236.0799 123.9958 15.30473872 77221 GEOSCAN 5 (RS92S5) 1 64891U 25155R 26144.90406965 .00012717 00000+0 40690-3 0 9991 2 64891 97.4532 114.1195 0003783 261.0704 99.0109 15.32542463 77257 GEOSCAN 4 (RS92S4) 1 64892U 25155S 26144.95577651 .00012837 00000+0 40897-3 0 9990 2 64892 97.4535 114.2135 0003734 261.7976 98.2843 15.32680497 77267 GEOSCAN 3 (RS92S3) 1 64893U 25155T 26144.92015151 .00017051 00000+0 51203-3 0 9996 2 64893 97.4524 114.5430 0003416 260.3534 99.7323 15.34498726 77284 INNOSAT 3 (RS92S0) 1 64894U 25155U 26144.90077183 .00034655 00000+0 81284-3 0 9999 2 64894 97.4478 115.8722 0001776 243.8723 116.2341 15.41986636 77379 KNACKSAT-2 1 67683U 98067XZ 26144.95178659 .00040620 00000+0 54043-3 0 9997 2 67683 51.6295 51.1568 0011897 115.8604 244.3617 15.57677453 16652